Location: Bethera
(33.2010°N, 79.7880°W)
Time: 10:29:20
(UTC-04:00)

Daily predictions for brighter satellites

Satellite Brightness Start Highest point End
(mag) Time Altitude Azimuth Time Altitude Azimuth Time Altitude Azimuth
Chandra Rocket (1) 4.4 20:36:00 10° W 20:42:04 69° S 21:08:51 10° E
Cosmos 1500 3.4 20:40:30 10° N 20:44:18 54° E 20:48:06 10° SSE
BREEZE-M DEB (TANK) 3.8 20:40:56 10° NW 20:44:49 74° NE 20:59:30 10° SE
Resurs 01 Rocket 3.4 20:45:45 10° SSW 20:49:45 33° W 20:53:48 10° NNW
Lacrosse 5 rocket 3.4 20:49:18 10° WSW 20:52:42 31° NW 20:56:15 10° NNE
Cosmos 1025 Rocket 3.0 20:48:49 10° S 20:53:12 78° E 20:57:35 10° N
Meteor 1-13 Rocket 4.4 20:48:09 10° S 20:54:00 84° W 20:59:45 10° N
Cosmos 2251 Rocket 3.6 20:49:35 10° SSW 20:54:52 89° WNW 21:00:15 10° NNE
Cosmos 2098 Rocket 2.8 20:53:09 10° N 20:56:42 89° ENE 21:01:10 10° S
Cosmos 1743 3.2 20:53:04 10° N 20:56:44 42° E 21:00:22 10° SSE
Cosmos 1892 Rocket 3.6 20:57:01 10° S 21:01:23 64° E 21:05:48 10° NNE
ERS-1 Rocket 3.6 20:57:32 10° SE 21:02:10 39° ENE 21:06:48 10° N
Cosmos 1603 4.5 20:57:27 10° SSE 21:02:14 29° ESE 21:07:00 10° NE
Meteor 2-17 Rocket 4.5 20:59:24 10° N 21:05:33 71° E 21:11:41 10° SSE
ATLAS 5 CENTAUR R/B 2.9 21:04:47 10° S 21:05:47 11° SSE 21:06:52 10° SE
Envisat 4.4 21:02:29 10° ESE 21:06:12 22° ENE 21:10:02 10° NNE
Delta 168 4.0 21:06:23 10° SW 21:09:09 22° SSE 21:11:38 14° ESE
Cosmos 1110 Rocket 4.1 21:06:25 10° N 21:11:40 62° ENE 21:16:39 11° SSE
USA 186 1.7 21:08:54 10° S 21:11:51 72° W 21:14:38 10° NNW
Meteor 2-4 Rocket 3.8 21:07:37 10° S 21:13:23 71° E 21:19:17 10° NNE
Abrixas rocket 4.3 21:13:02 10° NNW 21:15:43 21° NNE 21:18:24 10° E
Meteor 1-19 Rocket 4.4 21:10:11 10° S 21:15:49 79° W 21:21:26 10° N
Okean 2 3.4 21:11:44 10° S 21:15:51 64° E 21:20:00 10° NNE
Cosmos 2297 3.7 21:15:51 10° NNW 21:21:34 73° ENE 21:26:34 14° SSE
FENGYUN 3A 3.9 21:19:38 10° S 21:24:58 69° WSW 21:30:20 10° NNW
H-2A R/B 3.5 21:23:47 10° S 21:27:38 53° W 21:31:31 10° NNW
Cosmos 1726 Rocket 3.7 21:25:03 10° N 21:29:30 77° W 21:33:53 10° S
ISS -3.0 21:28:04 10° SSW 21:31:09 42° SE 21:34:16 10° ENE
PSLV R/B 3.9 21:28:02 10° WSW 21:31:31 59° NNW 21:35:03 10° ENE
OTV 4 2.8 21:30:11 10° WSW 21:31:49 14° SW 21:32:59 12° S
Cosmos 2285 Rocket 4.0 21:30:22 10° NNW 21:36:42 77° ENE 21:41:42 17° SSE
CZ-2C R/B 1.3 21:36:30 22° SSW 21:37:41 45° W 21:39:55 10° NNW
SPOT 5 3.4 21:36:20 23° ESE 21:38:25 35° ENE 21:42:23 10° N
Cosmos 1461 4.1 21:36:51 10° N 21:40:34 29° NE 21:42:09 22° E
GEOS 3 Rocket 4.0 21:38:41 16° SSE 21:42:53 61° WSW 21:48:04 10° NW
Cosmos 2058 Rocket 3.2 21:38:51 10° NNW 21:43:12 71° W 21:46:56 14° S
Cosmos 1602 Rocket 3.5 21:40:36 14° S 21:44:27 68° E 21:48:54 10° NNE
CZ-4 SHROUD 3.7 21:46:45 38° ESE 21:47:16 43° ENE 21:50:18 10° N
Cosmos 1464 Rocket 4.0 21:41:20 10° N 21:47:30 88° W 21:53:02 13° S
ALOS 4.0 21:46:16 10° SSW 21:50:21 30° W 21:54:29 10° NW
Aureole 2 Rocket 4.0 21:47:57 10° SW 21:51:48 41° WNW 21:55:20 10° N
GRACE-1 3.9 21:52:21 10° N 21:55:07 59° E 21:55:07 59° E
GRACE-2 3.9 21:52:48 10° N 21:55:33 59° E 21:55:33 59° E
SPOT 1/Viking Rocket 4.5 21:55:43 26° ESE 21:57:21 32° ENE 22:01:53 10° N
Cosmos 1812 Rocket 3.9 21:55:12 10° N 21:59:25 45° E 22:00:27 38° ESE
Terra 4.1 22:00:41 10° ENE 22:01:09 10° ENE 22:01:39 10° ENE
Cosmos 2278 Rocket 4.2 21:57:00 10° NW 22:01:19 23° W 22:05:37 10° SSW
Cosmos 2034 Rocket 4.0 21:59:43 10° N 22:06:06 84° W 22:10:30 21° S
H-2A R/B 3.0 22:05:22 18° SSW 22:08:09 42° W 22:12:15 10° NNW
SeaSat 1 2.5 22:07:20 38° SE 22:09:10 69° ENE 22:14:04 10° NNW
Atlas Centaur 2 3.0 22:01:44 10° WSW 22:09:16 65° SSE 22:15:35 19° E
ARGOS 3.9 22:10:34 31° E 22:11:55 36° ENE 22:16:50 10° N
Cosmos 2369 Rocket 3.5 22:10:35 10° N 22:15:09 25° ENE 22:16:29 23° E
DEBRIS 2.8 22:12:12 10° NW 22:15:34 47° N 22:15:34 47° N
PSLV R/B 3.4 22:16:10 62° W 22:16:10 62° W 22:19:14 10° NNW
Cosmos 1302 Rocket 4.3 22:11:33 10° NNW 22:16:43 62° WSW 22:19:13 30° S
Cosmos 1666 4.0 22:14:55 10° NNW 22:18:32 37° W 22:20:23 23° SW
Cosmos 1939 Rocket 4.0 22:17:36 25° SSW 22:19:35 41° W 22:23:33 10° NNW
CZ-4B R/B 3.4 22:14:53 10° NNE 22:20:00 88° ESE 22:22:53 27° SSW
COSMOS 2455 3.0 22:19:00 10° SSW 22:24:58 71° WNW 22:30:59 10° NNE
Milstar 3 Cent rocket 3.3 22:22:06 10° W 22:27:25 26° SSW 22:27:55 25° SSW
MetOp-B 4.1 22:28:00 44° S 22:29:48 83° WSW 22:35:11 10° NNW
Meteor 2-12 Rocket 4.3 22:24:24 10° N 22:30:31 82° E 22:32:34 44° SSE
OAO 3 Copernicus 4.2 22:25:58 10° WNW 22:30:59 72° SSW 22:31:34 64° SSE
Cosmos 1953 Rocket 4.0 22:35:33 49° ENE 22:35:33 49° ENE 22:39:14 10° NNE
ATLAS 3B R/B 2.8 22:27:26 10° SSW 22:35:04 70° ESE 22:42:38 10° NE
Cosmos 2346 Rocket 4.3 22:36:44 43° S 22:38:58 82° E 22:45:08 10° N
Cosmos 1515 4.4 22:43:53 47° W 22:44:10 48° W 22:47:55 10° N
Centaur D AC-28 3.7 22:41:36 10° WSW 22:42:46 16° SW 22:42:46 16° SW
Envisat 4.2 22:42:41 24° SW 22:44:57 35° W 22:49:34 10° NNW
Cosmos 1066 Rocket 4.1 22:43:48 50° S 22:45:23 89° W 22:51:11 10° N
USA 234 3.3 22:45:57 46° ESE 22:48:01 70° NE 22:54:33 10° NW
Cosmos 407 Rocket 3.4 22:49:25 72° ESE 22:49:25 72° ESE 22:54:38 10° NNE
Abrixas rocket 4.3 22:49:41 10° WNW 22:51:25 25° W 22:51:25 25° W
Cosmos 1346 Rocket 3.7 22:56:00 43° N 22:56:00 43° N 22:58:42 10° N
DELTA 2 DEB (DPAF) 4.4 22:56:14 63° NNE 22:56:14 63° NNE 23:00:09 10° N
SL-23 DEB 4.4 22:49:37 10° SW 22:56:44 88° NW 22:58:26 39° NE
Lacrosse 4 Rocket 2.7 22:59:11 33° NNE 22:59:11 33° NNE 23:01:31 10° NNE
YAOGAN 6 4.2 23:02:20 33° WNW 23:02:20 33° WNW 23:05:09 10° NNW
USA 81 4.4 23:02:16 10° NNW 23:07:28 59° W 23:08:03 55° WSW
ISS -0.3 23:05:33 10° WNW 23:07:44 17° NNW 23:09:56 10° N
Cosmos 1758 Rocket 4.2 23:10:06 54° NNW 23:10:06 54° NNW 23:13:36 10° N
USA 238 DEB 4.1 23:10:57 45° E 23:10:57 45° E 23:16:36 10° NE
USA 238 4.2 23:11:06 45° E 23:11:06 45° E 23:16:40 10° NE
Cosmos 1943 4.0 23:07:20 23° SW 23:10:34 48° WNW 23:16:05 10° N
Meteor 1-21 4.1 23:11:19 85° S 23:11:29 89° ESE 23:17:19 10° N
Landsat 7 4.3 23:23:17 56° NW 23:23:17 56° NW 23:27:12 10° NNW
Cosmos 1943 Rocket 3.2 23:19:00 10° N 23:23:31 34° NE 23:23:31 34° NE
H-2A R/B 2.4 23:28:49 59° NNW 23:28:49 59° NNW 23:32:53 10° NNW
Terra 2.7 23:39:33 46° NW 23:39:33 46° NW 23:43:00 10° NNW
Nadezhda 4 Rocket 4.1 23:45:01 72° NNE 23:45:01 72° NNE 23:50:43 10° N
